[[{"header":{"parameterUnit":"m.s-1","parameterCategory":1,"la1":30.2991,"la2":30.254,"lo1":-89.0895,"lo2":-89.0444,"dy":0.0017,"dx":0.0017,"nx":28,"ny":28,"refTime":"2024-07-08T03:00:00:Z","depth":0,"parameterNumber":2,"parameterNumberName":"U-component_of_WINDS"},"data":[0,0,0,0,0,0,0,0,0,0,0,0,0,0,0,0,0,0,0,0,0,0,0,0,0,0,0,0,0,0,0,0,0,0,0,0,0,0,0,0,0,0,0,0,0,0,0,0,0,0,0,0,0,0,0,0,0,0,-3.6399,-3.6399,0,-3.6403,-3.6403,-3.6403,-3.6369,-3.6368,-3.6367,-3.6367,-3.637,-3.6371,-3.6372,0,0,0,0,0,0,0,0,0,0,0,0,0,-3.6365,-3.6366,-3.6399,-3.6399,-3.64,-3.6403,-3.6403,-3.6403,-3.6369,-3.6368,-3.6367,-3.6366,-3.637,-3.6371,-3.6372,0,0,0,0,0,0,0,0,0,0,0,0,0,-3.6376,-3.6366,-3.6399,-3.6383,-3.6382,-3.6403,-3.6403,-3.6403,-3.637,-3.6368,-3.6367,-3.6366,-3.637,-3.6371,-3.6372,-3.6409,0,0,-3.6377,-3.6377,0,0,0,0,0,0,0,0,-3.6375,-3.6377,-3.6386,-3.6384,-3.6383,-3.6384,-3.6392,-3.6405,-3.637,-3.6374,-3.6367,-3.6365,-3.6376,-3.6377,-3.6381,-3.6409,-3.641,-3.6377,-3.6378,-3.6378,-3.6379,0,0,0,0,0,0,0,-3.6374,-3.6376,-3.6401,-3.6386,-3.6384,-3.6376,-3.6376,-3.6394,-3.6383,-3.6374,-3.6371,-3.6372,-3.6375,-3.6379,-3.638,-3.641,-3.6377,-3.6378,-3.6379,-3.638,-3.647,-3.6471,0,0,0,0,0,0,-3.6376,-3.6376,-3.6401,-3.6401,-3.6375,-3.6378,-3.6378,-3.6385,-3.6383,-3.6381,-3.6373,-3.6371,-3.6377,-3.6379,-3.638,-3.6423,-3.6378,-3.638,-3.6381,-3.6468,-3.647,-3.6471,0,0,0,0,0,0,-3.6375,-3.6378,-3.6401,-3.6388,-3.639,-3.638,-3.6389,-3.6386,-3.639,-3.6382,-3.638,-3.638,-3.6376,-3.6378,-3.6402,-3.6423,-3.638,-3.6382,-3.6466,-3.6469,-3.6471,-3.6509,0,0,0,0,0,0,-3.6374,-3.6378,-3.6391,-3.6388,-3.6391,-3.6422,-3.639,-3.6387,-3.6393,-3.6389,-3.6388,-3.6386,-3.6375,-3.64,-3.6404,-3.6424,-3.6383,-3.6464,-3.6467,-3.647,-3.6505,-3.6512,-3.6517,0,0,0,0,0,-3.6373,-3.6402,-3.6392,-3.6395,-3.6407,-3.6423,-3.6425,-3.6412,-3.6394,-3.6408,-3.6403,-3.6386,-3.6421,-3.6403,-3.6407,-3.6427,-3.6463,-3.6466,-3.647,-3.6503,-3.6511,-3.6517,0,0,0,0,0,0,-3.6407,-3.6401,-3.639,-3.6419,-3.6422,-3.6418,-3.6434,-3.6421,-3.6428,-3.6425,-3.6409,-3.6409,-3.6435,-3.6434,-3.6415,-3.6463,-3.6439,-3.6443,-3.6463,-3.647,-3.6476,-3.6475,-3.6384,0,0,0,0,0,-3.6418,-3.6431,-3.6426,-3.6451,-3.6454,-3.6444,-3.645,-3.644,-3.6443,-3.6444,-3.6441,-3.6444,-3.6455,-3.6463,-3.6473,-3.6506,-3.6505,-3.6522,-3.6528,-3.6533,-3.6537,-3.6554,-3.6561,-3.6483,-3.6483,-3.6483,0,0,-3.644,-3.6439,-3.6448,-3.6458,-3.6459,-3.6474,-3.6445,-3.6461,-3.6471,-3.6446,-3.6468,-3.6467,-3.6469,-3.6498,-3.651,-3.6498,-3.6559,-3.6538,-3.6542,-3.6542,-3.6558,-3.6566,-3.6572,-3.6485,-3.6485,-3.6484,0,0,-3.6488,-3.6489,-3.651,-3.6512,-3.6515,-3.6508,-3.6514,-3.6512,-3.651,-3.6532,-3.6514,-3.6526,-3.6547,-3.6549,-3.6553,-3.6605,-3.6589,-3.6609,-3.6639,-3.6656,-3.6662,-3.6668,-3.6685,-3.6691,-3.6612,-3.6612,-3.6613,0,-3.6515,-3.6536,-3.6523,-3.654,-3.6546,-3.6525,-3.6546,-3.6549,-3.6555,-3.6559,-3.6545,-3.6571,-3.6571,-3.66,-3.6613,-3.6617,-3.6623,-3.6607,-3.6662,-3.6668,-3.6672,-3.6689,-3.6696,-3.6615,-3.6614,-3.6614,-3.6614,0,-3.6569,-3.6584,-3.6601,-3.6607,-3.6615,-3.6634,-3.6625,-3.6634,-3.6625,-3.662,-3.6644,-3.6644,-3.6654,-3.666,-3.6651,-3.6689,-3.668,-3.6665,-3.6639,-3.6682,-3.6697,-3.6704,-3.6618,-3.6617,-3.6616,-3.6616,0,0,-3.6635,-3.6636,-3.6642,-3.6645,-3.6647,-3.6658,-3.6678,-3.6688,-3.6696,-3.6702,-3.6717,-3.6736,-3.6722,-3.6726,-3.6718,-3.6733,-3.6773,-3.6716,-3.6715,-3.6725,-3.6814,-3.6824,-3.6831,-3.6764,-3.6765,-3.6766,-3.6813,0,-3.668,-3.6713,-3.6703,-3.6736,-3.6749,-3.6731,-3.6748,-3.6751,-3.6749,-3.676,-3.6757,-3.677,-3.6751,-3.6754,-3.6768,-3.6765,-3.679,-3.6762,-3.6778,-3.6778,-3.6775,-3.6839,-3.685,-3.6894,-3.6819,-3.682,-3.6821,0,-3.6737,-3.6745,-3.6779,-3.678,-3.6785,-3.6801,-3.6809,-3.6821,-3.6825,-3.6822,-3.6828,-3.6817,-3.6836,-3.6813,-3.684,-3.6821,-3.6827,-3.6827,-3.6828,-3.6827,-3.68,-3.6839,-3.6908,-3.6914,-3.683,-3.6829,-3.6829,0,-3.678,-3.68,-3.6823,-3.6826,-3.6828,-3.6839,-3.6841,-3.6843,-3.6851,-3.6859,-3.6863,-3.6874,-3.6879,-3.6888,-3.688,-3.6864,-3.6908,-3.6884,-3.6905,-3.6906,-3.6913,-3.6913,-3.6983,-3.6921,-3.6921,-3.6921,-3.6921,0,-3.6831,-3.6852,-3.6842,-3.6856,-3.688,-3.687,-3.6893,-3.6893,-3.6896,-3.691,-3.6896,-3.6909,-3.6898,-3.6911,-3.6905,-3.6928,-3.6931,-3.6929,-3.6926,-3.6929,-3.6929,-3.6931,-3.6927,-3.6923,-3.6922,-3.6922,-3.6922,0,-3.6882,-3.6876,-3.69,-3.6901,-3.6901,-3.6919,-3.6919,-3.6932,-3.693,-3.6947,-3.6951,-3.6946,-3.696,-3.6954,-3.6969,-3.6965,-3.6994,-3.6989,-3.6992,-3.699,-3.7012,-3.7009,-3.7084,-3.7093,-3.7027,-3.7028,-3.7028,0,-3.6913,-3.6929,-3.6932,-3.694,-3.6943,-3.6956,-3.6964,-3.6955,-3.6963,-3.697,-3.6983,-3.6996,-3.7005,-3.7029,-3.7027,-3.7039,-3.7033,-3.7059,-3.7034,-3.7036,-3.7031,-3.703,-3.7031,-3.7062,-3.7063,-3.7064,-3.7064,0,-3.6969,-3.6966,-3.6977,-3.6988,-3.6997,-3.7005,-3.7012,-3.702,-3.7011,-3.7022,-3.7036,-3.7044,-3.706,-3.7073,-3.7084,-3.7085,-3.7073,-3.7073,-3.7078,-3.7079,-3.708,-3.7078,-3.7003,-3.707,-3.707,-3.7069,-3.7069,-3.7069,-3.701,-3.7024,-3.7028,-3.7041,-3.7046,-3.7053,-3.7065,-3.7064,-3.7076,-3.7088,-3.7083,-3.71,-3.7105,-3.7118,-3.7122,-3.7135,-3.7125,-3.7133,-3.7135,-3.7136,-3.7138,-3.708,-3.7137,-3.7137,-3.7137,-3.7137,-3.7137,0,-3.7064,-3.7067,-3.7079,-3.7089,-3.71,-3.7089,-3.7097,-3.7106,-3.7121,-3.7127,-3.7137,-3.7155,-3.7168,-3.7168,-3.718,-3.7191,-3.7186,-3.7194,-3.7192,-3.7193,-3.7147,-3.7141,-3.7198,-3.7198,-3.7198,-3.7198,-3.7198,-3.7198,-3.7094,-3.7116,-3.7114,-3.7138,-3.7141,-3.7157,-3.7162,-3.7169,-3.7173,-3.7193,-3.7204,-3.7204,-3.7208,-3.7221,-3.7233,-3.7232,-3.7237,-3.7247,-3.7245,-3.7202,-3.7196,-3.719,-3.7184,-3.7249,-3.7249,-3.7289,-3.7289,-3.7289]},{"header":{"parameterUnit":"m.s-1","parameterCategory":1,"la1":30.2991,"la2":30.254,"lo1":-89.0895,"lo2":-89.0444,"dy":0.0017,"dx":0.0017,"nx":28,"ny":28,"refTime":"2024-07-08T03:00:00:Z","depth":0,"parameterNumber":3,"parameterNumberName":"V-component_of_WINDS"},"data":[0,0,0,0,0,0,0,0,0,0,0,0,0,0,0,0,0,0,0,0,0,0,0,0,0,0,0,0,0,0,0,0,0,0,0,0,0,0,0,0,0,0,0,0,0,0,0,0,0,0,0,0,0,0,0,0,0,0,4.1237,4.1238,0,4.1263,4.1263,4.1264,4.125,4.1249,4.1248,4.1248,4.1272,4.1274,4.1275,0,0,0,0,0,0,0,0,0,0,0,0,0,4.1175,4.1177,4.1237,4.1238,4.1238,4.1263,4.1263,4.1264,4.125,4.1249,4.1248,4.1247,4.1272,4.1274,4.1275,0,0,0,0,0,0,0,0,0,0,0,0,0,4.1202,4.1177,4.1237,4.1234,4.1234,4.1263,4.1263,4.1264,4.125,4.1249,4.1248,4.1247,4.1272,4.1273,4.1275,4.1308,0,0,4.1281,4.1282,0,0,0,0,0,0,0,0,4.12,4.1204,4.1234,4.1234,4.1234,4.1252,4.1251,4.1279,4.125,4.1244,4.1248,4.1246,4.1266,4.1269,4.1276,4.131,4.1311,4.1282,4.1283,4.1284,4.1284,0,0,0,0,0,0,0,4.1199,4.1203,4.1247,4.1235,4.1235,4.1231,4.1234,4.1256,4.1261,4.1244,4.1243,4.1247,4.1266,4.1274,4.1276,4.1311,4.1282,4.1283,4.1284,4.1285,4.1375,4.1376,0,0,0,0,0,0,4.1197,4.1202,4.1247,4.1248,4.1215,4.1233,4.1236,4.1247,4.126,4.1261,4.1248,4.1246,4.1271,4.1274,4.1277,4.1318,4.1284,4.1285,4.1287,4.1374,4.1375,4.1376,0,0,0,0,0,0,4.1196,4.1201,4.1246,4.1225,4.123,4.1235,4.1248,4.1249,4.1256,4.1263,4.1264,4.1255,4.127,4.1274,4.1301,4.1318,4.1286,4.1288,4.1372,4.1374,4.1376,4.1399,0,0,0,0,0,0,4.1194,4.1201,4.1213,4.1225,4.1231,4.1269,4.1249,4.125,4.126,4.1258,4.127,4.1271,4.127,4.1298,4.1303,4.1321,4.129,4.1371,4.1373,4.1375,4.1396,4.1401,4.1405,0,0,0,0,0,4.1192,4.1218,4.1214,4.122,4.1247,4.127,4.1274,4.1273,4.1261,4.1274,4.1279,4.127,4.1316,4.1301,4.1307,4.1325,4.137,4.1372,4.1375,4.1395,4.14,4.1405,0,0,0,0,0,0,4.1207,4.122,4.1215,4.1246,4.1258,4.1268,4.1284,4.1279,4.1293,4.1291,4.1289,4.1292,4.132,4.1325,4.1308,4.1358,4.1341,4.1345,4.1354,4.1359,4.1364,4.1362,4.1291,0,0,0,0,0,4.1215,4.1233,4.1242,4.1269,4.1275,4.1279,4.1289,4.1287,4.1299,4.1303,4.1309,4.1321,4.1338,4.1349,4.1364,4.1397,4.14,4.1412,4.1417,4.142,4.1424,4.1443,4.1449,4.1385,4.1385,4.1385,0,0,4.1229,4.1238,4.125,4.1272,4.1281,4.13,4.1283,4.1303,4.1317,4.1306,4.1332,4.1337,4.135,4.138,4.1394,4.1385,4.1442,4.1424,4.1426,4.1428,4.1446,4.1452,4.1457,4.1387,4.1387,4.1387,0,0,4.1266,4.1274,4.1298,4.1307,4.1321,4.1324,4.1329,4.1341,4.1345,4.1371,4.1364,4.138,4.1409,4.1419,4.1427,4.147,4.1463,4.1475,4.1497,4.1516,4.1521,4.1525,4.1541,4.1547,4.1478,4.1478,4.1478,0,4.1282,4.1311,4.131,4.1332,4.1342,4.1334,4.1359,4.1367,4.1385,4.1393,4.1383,4.1421,4.1428,4.1461,4.1472,4.1479,4.1486,4.1473,4.152,4.1524,4.1529,4.1544,4.155,4.1479,4.1479,4.1479,4.1479,0,4.1331,4.1351,4.1368,4.1387,4.1399,4.1422,4.1425,4.1438,4.1436,4.1439,4.1467,4.1476,4.1494,4.1502,4.15,4.1535,4.153,4.152,4.1503,4.1536,4.155,4.1556,4.1482,4.1481,4.1481,4.148,0,0,4.1377,4.1397,4.1403,4.1412,4.1427,4.1443,4.1466,4.1484,4.1496,4.1508,4.1528,4.1553,4.1545,4.1555,4.1554,4.157,4.1604,4.1558,4.1559,4.1567,4.1645,4.1653,4.1659,4.16,4.1601,4.1602,4.1644,0,4.1415,4.1456,4.1457,4.1494,4.1513,4.1506,4.1526,4.1538,4.1542,4.1559,4.1563,4.1582,4.1569,4.1575,4.1591,4.1597,4.162,4.1593,4.1618,4.1619,4.1615,4.1667,4.1675,4.1714,4.165,4.1651,4.1651,0,4.1465,4.1481,4.1521,4.1535,4.1543,4.1561,4.1579,4.1595,4.1608,4.161,4.1622,4.1619,4.1642,4.1624,4.1657,4.1639,4.1649,4.1654,4.1655,4.1658,4.1637,4.1671,4.1727,4.1733,4.166,4.1659,4.1659,0,4.1496,4.1527,4.1555,4.1563,4.158,4.1593,4.16,4.1613,4.1625,4.164,4.1648,4.1666,4.1676,4.169,4.1691,4.1678,4.1725,4.1706,4.1727,4.1728,4.1738,4.1737,4.1796,4.1743,4.1743,4.1743,4.1743,0,4.1539,4.1564,4.157,4.1587,4.1615,4.1615,4.1643,4.1649,4.166,4.1679,4.1674,4.1691,4.1692,4.171,4.1712,4.1739,4.1743,4.1746,4.1746,4.1747,4.1747,4.1754,4.1751,4.1745,4.1744,4.1744,4.1744,0,4.1579,4.1583,4.1614,4.1628,4.1632,4.1652,4.1664,4.168,4.1685,4.1708,4.1714,4.1721,4.1742,4.1745,4.1769,4.177,4.1803,4.18,4.1799,4.1799,4.182,4.1818,4.1886,4.1896,4.1836,4.1837,4.1837,0,4.1606,4.1625,4.1641,4.1654,4.1662,4.1682,4.1695,4.1697,4.171,4.1727,4.1742,4.1763,4.1779,4.1813,4.182,4.1839,4.1837,4.186,4.184,4.184,4.1838,4.1837,4.184,4.1863,4.1864,4.1865,4.1865,0,4.1654,4.1656,4.1675,4.1694,4.171,4.1725,4.1739,4.175,4.1754,4.1769,4.1791,4.1804,4.1829,4.185,4.1869,4.1877,4.1872,4.1871,4.1877,4.1878,4.1877,4.1879,4.181,4.187,4.1869,4.1869,4.1869,4.1868,4.1689,4.1706,4.1721,4.1742,4.1753,4.1767,4.1784,4.1791,4.181,4.1832,4.1831,4.1856,4.187,4.1895,4.1904,4.1923,4.1916,4.1924,4.1927,4.1929,4.1931,4.1874,4.1926,4.1926,4.1926,4.1926,4.1926,0,4.1738,4.1748,4.1767,4.1788,4.1805,4.18,4.1816,4.183,4.1852,4.1866,4.1883,4.1908,4.1929,4.1938,4.1959,4.1972,4.1971,4.1978,4.1977,4.1979,4.1936,4.1929,4.1979,4.1979,4.1979,4.1979,4.1979,4.1979,4.1766,4.1795,4.1799,4.1834,4.1843,4.1868,4.1877,4.1891,4.1902,4.1931,4.1949,4.1955,4.1967,4.1988,4.2007,4.2009,4.2017,4.2026,4.2027,4.1987,4.1982,4.1977,4.197,4.2027,4.2027,4.2068,4.2068,4.2069]}]]